[[{"header":{"parameterUnit":"m.s-1","parameterCategory":2,"la1":30.2991,"la2":30.254,"lo1":-89.0895,"lo2":-89.0444,"dy":0.0017,"dx":0.0017,"nx":28,"ny":28,"refTime":"2025-01-09T09:00:00:Z","depth":"0","parameterNumber":2,"parameterNumberName":"U-component_of_CURRENTS"},"data":[0,0,0,0,0,0,0,0,0,0,0,0,0,0,0,0,0,0,0,0,0,0,0,0,0,0,0,0,0,0,0,0,0,0,0,0,0,0,0,0,0,0,0,0,0,0,0,0,0,0,0,0,0,0,0,0,0,0,0.255,0.255,0,0.2522,0.2522,0.2521,0.2488,0.2487,0.2487,0.2487,0.2471,0.247,0.247,0,0,0,0,0,0,0,0,0,0,0,0,0,0.2614,0.2612,0.255,0.255,0.255,0.2522,0.2522,0.2521,0.2488,0.2487,0.2487,0.2486,0.2471,0.247,0.247,0,0,0,0,0,0,0,0,0,0,0,0,0,0.2584,0.2612,0.255,0.2531,0.2529,0.2522,0.2522,0.2521,0.2488,0.2487,0.2487,0.2486,0.2471,0.247,0.247,0.2481,0,0,0.247,0.247,0,0,0,0,0,0,0,0,0.2586,0.2582,0.2534,0.2532,0.253,0.2509,0.2538,0.2509,0.2488,0.2502,0.2487,0.2486,0.2486,0.2485,0.2478,0.248,0.2479,0.247,0.247,0.247,0.247,0,0,0,0,0,0,0,0.2588,0.2583,0.2537,0.2534,0.2531,0.2537,0.2532,0.2533,0.2496,0.25,0.2498,0.2498,0.2485,0.2478,0.2478,0.2479,0.247,0.247,0.247,0.247,0.2502,0.2503,0,0,0,0,0,0,0.2593,0.2585,0.2538,0.2537,0.2559,0.2537,0.2531,0.2515,0.2496,0.2493,0.2499,0.2497,0.2479,0.2478,0.2477,0.2503,0.247,0.247,0.247,0.2501,0.2502,0.2503,0,0,0,0,0,0,0.2594,0.2588,0.2539,0.2562,0.2557,0.2536,0.2519,0.2515,0.2511,0.2495,0.2491,0.2499,0.2478,0.2477,0.2481,0.2501,0.247,0.247,0.25,0.2502,0.2503,0.2545,0,0,0,0,0,0,0.2596,0.2589,0.2584,0.2562,0.2556,0.254,0.252,0.2515,0.2512,0.2509,0.2494,0.2492,0.2478,0.2481,0.2481,0.25,0.2469,0.2499,0.2501,0.2502,0.2542,0.2548,0.2552,0,0,0,0,0,0.2598,0.2584,0.2584,0.2579,0.2548,0.254,0.2538,0.252,0.2513,0.2514,0.2504,0.2492,0.2492,0.2482,0.2481,0.2501,0.2498,0.25,0.2502,0.254,0.2547,0.2552,0,0,0,0,0,0,0.2596,0.258,0.2578,0.2557,0.2556,0.2535,0.2533,0.2527,0.252,0.2518,0.2501,0.2499,0.2512,0.2502,0.2491,0.2516,0.2495,0.2497,0.2524,0.253,0.2535,0.2545,0.2469,0,0,0,0,0,0.2599,0.2591,0.258,0.2565,0.2566,0.2555,0.2552,0.2544,0.2534,0.2529,0.252,0.2515,0.252,0.252,0.2519,0.2532,0.2541,0.2546,0.2551,0.2555,0.2564,0.26,0.2609,0.251,0.251,0.251,0,0,0.2591,0.2585,0.2577,0.2567,0.2562,0.2568,0.2551,0.2547,0.2554,0.2531,0.2535,0.2532,0.2528,0.2541,0.2547,0.2535,0.2588,0.2558,0.2561,0.2568,0.2603,0.2613,0.2621,0.2512,0.2511,0.2511,0,0,0.258,0.2571,0.2567,0.2574,0.2578,0.2576,0.258,0.257,0.2569,0.2576,0.2566,0.2578,0.2574,0.258,0.2582,0.2616,0.2614,0.2615,0.2647,0.2682,0.269,0.2698,0.2721,0.2731,0.2616,0.2616,0.2616,0,0.2574,0.2568,0.2566,0.2574,0.2583,0.2584,0.2592,0.2594,0.2588,0.26,0.2583,0.2605,0.2596,0.263,0.2635,0.2629,0.2643,0.2624,0.2689,0.2697,0.2704,0.2726,0.2736,0.2618,0.2618,0.2618,0.2618,0,0.2565,0.2572,0.2572,0.2586,0.2597,0.2603,0.2615,0.2627,0.263,0.2637,0.2668,0.2661,0.2678,0.2677,0.2662,0.2713,0.2705,0.2692,0.2675,0.2716,0.2737,0.2746,0.2622,0.2621,0.262,0.262,0,0,0.2517,0.2559,0.2559,0.2577,0.2607,0.2608,0.264,0.2668,0.2696,0.2699,0.2736,0.2744,0.275,0.2754,0.2747,0.277,0.2824,0.2751,0.2752,0.2776,0.2899,0.2873,0.288,0.2825,0.2826,0.2828,0.2893,0,0.2513,0.2533,0.256,0.2586,0.2598,0.2632,0.2663,0.2693,0.2722,0.2758,0.2775,0.2802,0.2778,0.279,0.2814,0.2826,0.2851,0.2807,0.2854,0.2855,0.2828,0.2892,0.2802,0.285,0.2902,0.2903,0.2905,0,0.2493,0.2514,0.2539,0.2596,0.2605,0.2625,0.2686,0.2714,0.278,0.2811,0.2857,0.2869,0.2913,0.2877,0.2935,0.2909,0.291,0.2912,0.2914,0.2883,0.2847,0.2817,0.2865,0.2832,0.2919,0.2918,0.2917,0,0.245,0.2498,0.252,0.2536,0.2598,0.2622,0.2655,0.2725,0.2768,0.2848,0.289,0.2946,0.2975,0.2997,0.3002,0.2976,0.3059,0.3024,0.3003,0.3,0.293,0.2918,0.2952,0.3066,0.3066,0.3066,0.3066,0,0.2429,0.2444,0.25,0.2508,0.2543,0.2594,0.2646,0.2701,0.2791,0.2844,0.2908,0.296,0.3007,0.3051,0.3043,0.3064,0.3099,0.3028,0.3026,0.2941,0.293,0.29,0.2879,0.3069,0.3068,0.3068,0.3067,0,0.2375,0.2414,0.244,0.2502,0.2521,0.254,0.2632,0.2675,0.2771,0.2845,0.2873,0.2992,0.3056,0.3093,0.3141,0.3119,0.3063,0.3127,0.3021,0.3005,0.2936,0.292,0.2831,0.2736,0.3119,0.3119,0.3119,0,0.235,0.2358,0.2416,0.2431,0.2458,0.2502,0.2538,0.2647,0.2701,0.285,0.2878,0.2988,0.3052,0.314,0.3141,0.3158,0.3056,0.306,0.2991,0.2943,0.2923,0.28,0.2716,0.2913,0.2912,0.291,0.2909,0,0.2302,0.2324,0.2345,0.2376,0.2408,0.2446,0.2504,0.2548,0.267,0.2744,0.2843,0.2915,0.3039,0.3042,0.3091,0.3079,0.2936,0.303,0.3011,0.28,0.2637,0.254,0.2858,0.2896,0.2898,0.2898,0.2899,0.29,0.2261,0.2262,0.2291,0.2313,0.2343,0.2364,0.2367,0.2445,0.2511,0.2598,0.273,0.2814,0.2923,0.2998,0.2969,0.2911,0.2861,0.282,0.2817,0.2706,0.2573,0.2863,0.2877,0.2878,0.2879,0.288,0.2881,0,0.2198,0.2207,0.2227,0.2237,0.223,0.228,0.2321,0.2311,0.2335,0.248,0.2556,0.2683,0.2728,0.2797,0.2817,0.2729,0.2576,0.2649,0.2467,0.2401,0.2704,0.2657,0.2586,0.2586,0.2586,0.2586,0.2586,0.2586,0.2167,0.215,0.2159,0.2116,0.2122,0.2078,0.2078,0.2087,0.2164,0.2237,0.2326,0.2444,0.2669,0.2793,0.2741,0.2649,0.2434,0.2321,0.2296,0.2554,0.2569,0.2583,0.2535,0.2439,0.2439,0.1879,0.1875,0.1872]},{"header":{"parameterUnit":"m.s-1","parameterCategory":2,"la1":30.2991,"la2":30.254,"lo1":-89.0895,"lo2":-89.0444,"dy":0.0017,"dx":0.0017,"nx":28,"ny":28,"refTime":"2025-01-09T09:00:00:Z","depth":"0","parameterNumber":3,"parameterNumberName":"V-component_of_CURRENTS"},"data":[0,0,0,0,0,0,0,0,0,0,0,0,0,0,0,0,0,0,0,0,0,0,0,0,0,0,0,0,0,0,0,0,0,0,0,0,0,0,0,0,0,0,0,0,0,0,0,0,0,0,0,0,0,0,0,0,0,0,-0.008,-0.008,0,-0.0125,-0.0125,-0.0126,-0.0155,-0.0155,-0.0155,-0.0155,-0.0204,-0.0205,-0.0206,0,0,0,0,0,0,0,0,0,0,0,0,0,-0.0051,-0.0052,-0.008,-0.008,-0.0081,-0.0125,-0.0125,-0.0126,-0.0155,-0.0155,-0.0155,-0.0155,-0.0203,-0.0205,-0.0206,0,0,0,0,0,0,0,0,0,0,0,0,0,-0.0078,-0.0052,-0.0079,-0.01,-0.0102,-0.0125,-0.0126,-0.0126,-0.0155,-0.0155,-0.0155,-0.0156,-0.0203,-0.0205,-0.0206,-0.0214,0,0,-0.0212,-0.0213,0,0,0,0,0,0,0,0,-0.0076,-0.0079,-0.0096,-0.0098,-0.0101,-0.0134,-0.0133,-0.0156,-0.0155,-0.0136,-0.0155,-0.0156,-0.018,-0.0184,-0.0193,-0.0217,-0.0219,-0.0212,-0.0213,-0.0214,-0.0214,0,0,0,0,0,0,0,-0.0074,-0.0077,-0.0098,-0.0097,-0.0099,-0.0118,-0.0121,-0.0138,-0.0157,-0.0138,-0.014,-0.0143,-0.0181,-0.0191,-0.0194,-0.022,-0.0212,-0.0213,-0.0215,-0.0215,-0.0237,-0.0236,0,0,0,0,0,0,-0.0065,-0.0075,-0.0097,-0.01,-0.0087,-0.0118,-0.0122,-0.0124,-0.0157,-0.0162,-0.0143,-0.0144,-0.0188,-0.0192,-0.0196,-0.0188,-0.0214,-0.0215,-0.0216,-0.0237,-0.0237,-0.0236,0,0,0,0,0,0,-0.0064,-0.0066,-0.0095,-0.0088,-0.0093,-0.0118,-0.012,-0.0125,-0.0131,-0.0161,-0.0166,-0.0144,-0.0188,-0.0194,-0.0205,-0.0191,-0.0216,-0.0218,-0.0238,-0.0237,-0.0236,-0.0184,0,0,0,0,0,0,-0.0063,-0.0066,-0.0064,-0.0087,-0.0093,-0.01,-0.012,-0.0125,-0.0133,-0.0135,-0.0164,-0.0169,-0.0189,-0.0202,-0.0207,-0.0194,-0.0219,-0.0238,-0.0237,-0.0237,-0.0187,-0.0182,-0.0178,0,0,0,0,0,-0.0062,-0.0056,-0.0063,-0.0066,-0.0089,-0.0099,-0.0104,-0.0123,-0.0133,-0.0131,-0.0151,-0.0168,-0.0199,-0.0203,-0.0209,-0.0196,-0.0239,-0.0238,-0.0237,-0.0189,-0.0183,-0.0178,0,0,0,0,0,0,-0.0039,-0.0059,-0.0068,-0.0067,-0.0079,-0.0104,-0.0105,-0.0118,-0.0134,-0.0136,-0.0164,-0.017,-0.0176,-0.0193,-0.0196,-0.0199,-0.022,-0.022,-0.0182,-0.0177,-0.0172,-0.0159,-0.0221,0,0,0,0,0,-0.0033,-0.0036,-0.0055,-0.0054,-0.0058,-0.0081,-0.0088,-0.0099,-0.0116,-0.0124,-0.0144,-0.0163,-0.0176,-0.0181,-0.0199,-0.02,-0.0222,-0.0195,-0.0191,-0.0187,-0.0179,-0.0201,-0.0197,-0.0232,-0.0232,-0.0232,0,0,-0.0023,-0.0035,-0.0037,-0.0049,-0.0062,-0.0056,-0.0085,-0.009,-0.0084,-0.0126,-0.0125,-0.015,-0.0174,-0.0176,-0.0179,-0.0188,-0.0189,-0.0185,-0.0182,-0.0176,-0.0199,-0.0196,-0.0193,-0.0232,-0.0232,-0.0232,0,0,-0.0001,-0.0015,-0.0008,-0.0014,-0.0027,-0.0038,-0.0036,-0.0056,-0.0065,-0.007,-0.0096,-0.0112,-0.0134,-0.0146,-0.0155,-0.0136,-0.0167,-0.014,-0.0103,-0.0124,-0.0122,-0.0119,-0.0145,-0.0145,-0.0134,-0.0134,-0.0134,0,0.0014,0.0022,-0.0006,0.0003,0.0008,-0.0024,-0.0005,-0.0018,-0.0039,-0.0038,-0.0062,-0.0092,-0.0118,-0.0114,-0.011,-0.0125,-0.0144,-0.0121,-0.0118,-0.0116,-0.0115,-0.0142,-0.0143,-0.0132,-0.0132,-0.0132,-0.0133,0,0.0045,0.0052,0.0058,0.0061,0.0061,0.007,0.0054,0.0048,0.0031,0.0022,0.0013,-0.003,-0.0044,-0.0057,-0.008,-0.0076,-0.0096,-0.0113,-0.013,-0.0108,-0.0138,-0.014,-0.0128,-0.0129,-0.013,-0.013,0,0,0.0084,0.0081,0.0085,0.0102,0.0094,0.0103,0.0108,0.0114,0.0133,0.0092,0.0107,0.0067,0.0041,0.0029,-0.0005,-0.0028,-0.0044,-0.0062,-0.0064,-0.0084,-0.0093,-0.0108,-0.0113,-0.0061,-0.0061,-0.0061,-0.0119,0,0.0123,0.0155,0.0142,0.0185,0.0206,0.0182,0.0195,0.0192,0.0184,0.0187,0.0135,0.0134,0.0077,0.0071,0.0038,-0.002,-0.0047,-0.0027,-0.0114,-0.0116,-0.013,-0.0115,-0.0116,-0.0168,-0.0121,-0.0122,-0.0122,0,0.0168,0.0184,0.0227,0.0255,0.0263,0.0279,0.0305,0.0316,0.0304,0.0296,0.0274,0.0234,0.0194,0.0139,0.0048,0.0063,-0.0008,-0.0063,-0.0067,-0.0099,-0.0135,-0.0182,-0.0174,-0.0334,-0.0126,-0.0125,-0.0125,0,0.0222,0.0252,0.0291,0.0299,0.0317,0.0331,0.0344,0.035,0.0382,0.0369,0.0383,0.0322,0.0299,0.0199,0.0077,0.0065,-0.003,-0.006,-0.0143,-0.0146,-0.0173,-0.0177,-0.0326,-0.0125,-0.0125,-0.0125,-0.0125,0,0.0277,0.0311,0.0318,0.034,0.0397,0.0388,0.0452,0.0452,0.0472,0.0524,0.0448,0.0465,0.0313,0.0236,0.0111,-0.0019,-0.0005,-0.0132,-0.0158,-0.0155,-0.0157,-0.0318,-0.0421,-0.0127,-0.0127,-0.0126,-0.0126,0,0.0332,0.0332,0.0385,0.0409,0.0424,0.0467,0.0528,0.0578,0.0578,0.0637,0.0635,0.058,0.0479,0.0316,0.016,0.004,-0.0192,-0.0145,-0.0134,-0.0157,-0.0382,-0.048,-0.0659,-0.0734,-0.0243,-0.0243,-0.0244,0,0.0361,0.0391,0.0441,0.048,0.0493,0.0553,0.0603,0.063,0.0694,0.0715,0.0753,0.067,0.0638,0.0396,0.0162,-0.006,-0.022,-0.0209,-0.0234,-0.0392,-0.0521,-0.0589,-0.0644,-0.0255,-0.0256,-0.0256,-0.0257,0,0.0422,0.0436,0.0478,0.0556,0.0614,0.069,0.0762,0.0827,0.0862,0.091,0.0953,0.0924,0.0686,0.0472,0.0159,-0.0009,-0.0336,-0.0225,-0.0393,-0.0545,-0.0626,-0.0709,-0.0228,-0.0261,-0.0261,-0.026,-0.026,-0.026,0.0469,0.051,0.0563,0.0642,0.0714,0.081,0.0888,0.097,0.1073,0.1142,0.1108,0.1097,0.0756,0.0336,0.0088,-0.0372,-0.0381,-0.0506,-0.0613,-0.0666,-0.0742,-0.0269,-0.0327,-0.0327,-0.0327,-0.0327,-0.0327,0,0.0525,0.0571,0.0648,0.0739,0.0829,0.0854,0.0985,0.1068,0.1192,0.1251,0.1284,0.1101,0.07,0.0264,-0.0348,-0.0681,-0.0808,-0.0884,-0.0993,-0.1029,-0.061,-0.0613,-0.073,-0.073,-0.073,-0.0729,-0.0729,-0.0729,0.0554,0.0634,0.0672,0.0818,0.0886,0.1011,0.109,0.1206,0.1286,0.1344,0.1326,0.1269,0.0887,-0.0152,-0.0894,-0.1072,-0.1328,-0.1394,-0.1513,-0.1245,-0.1218,-0.1192,-0.1218,-0.146,-0.1461,-0.1873,-0.1878,-0.1881]}],[{"header":{"parameterUnit":"m.s-1","parameterCategory":2,"la1":30.2991,"la2":30.254,"lo1":-89.0895,"lo2":-89.0444,"dy":0.0017,"dx":0.0017,"nx":28,"ny":28,"refTime":"2025-01-09T09:00:00:Z","depth":"2","parameterNumber":2,"parameterNumberName":"U-component_of_CURRENTS"},"data":[0,0,0,0,0,0,0,0,0,0,0,0,0,0,0,0,0,0,0,0,0,0,0,0,0,0,0,0,0,0,0,0,0,0,0,0,0,0,0,0,0,0,0,0,0,0,0,0,0,0,0,0,0,0,0,0,0,0,0.2447,0.2447,0,0.2433,0.2433,0.2433,0.2408,0.2408,0.2408,0.2407,0.24,0.24,0.24,0,0,0,0,0,0,0,0,0,0,0,0,0,0.2485,0.2484,0.2447,0.2447,0.2447,0.2433,0.2433,0.2433,0.2408,0.2408,0.2408,0.2407,0.24,0.24,0.24,0,0,0,0,0,0,0,0,0,0,0,0,0,0.2468,0.2484,0.2447,0.2435,0.2434,0.2433,0.2433,0.2433,0.2408,0.2408,0.2407,0.2407,0.24,0.24,0.24,0.2409,0,0,0.2401,0.2401,0,0,0,0,0,0,0,0,0.2469,0.2466,0.2437,0.2436,0.2435,0.2424,0.2444,0.2426,0.2408,0.2416,0.2407,0.2407,0.241,0.241,0.2405,0.2409,0.2408,0.2401,0.2401,0.2401,0.2401,0,0,0,0,0,0,0,0.247,0.2467,0.244,0.2437,0.2436,0.2442,0.2438,0.244,0.2414,0.2415,0.2414,0.2416,0.2409,0.2405,0.2404,0.2408,0.2401,0.2401,0.2401,0.2401,0.244,0.2441,0,0,0,0,0,0,0.2475,0.2468,0.244,0.2439,0.2454,0.2441,0.2437,0.2426,0.2414,0.2412,0.2416,0.2415,0.2405,0.2404,0.2404,0.2435,0.2401,0.2401,0.2401,0.2439,0.244,0.2441,0,0,0,0,0,0,0.2475,0.2472,0.2441,0.2456,0.2453,0.2441,0.2429,0.2426,0.2427,0.2415,0.2413,0.2421,0.2404,0.2404,0.2412,0.2434,0.2401,0.2401,0.2438,0.2439,0.244,0.2484,0,0,0,0,0,0,0.2476,0.2472,0.2472,0.2456,0.2452,0.2446,0.2429,0.2426,0.243,0.2428,0.2419,0.2417,0.2404,0.2412,0.2412,0.2433,0.2401,0.2436,0.2438,0.244,0.2481,0.2486,0.2491,0,0,0,0,0,0.2477,0.247,0.2471,0.2469,0.2449,0.2447,0.2446,0.2435,0.2431,0.2434,0.2428,0.2418,0.2424,0.2413,0.2413,0.2435,0.2435,0.2438,0.244,0.2479,0.2485,0.2491,0,0,0,0,0,0,0.2478,0.2467,0.2467,0.2455,0.2458,0.2444,0.2447,0.2443,0.2441,0.2441,0.2427,0.2426,0.2443,0.2434,0.2422,0.2452,0.243,0.2432,0.2459,0.2465,0.247,0.2479,0.2401,0,0,0,0,0,0.2482,0.2478,0.2472,0.2465,0.2469,0.2463,0.2464,0.2459,0.2453,0.2452,0.2446,0.2445,0.2452,0.2454,0.2455,0.247,0.2478,0.2485,0.249,0.2495,0.2503,0.2537,0.2546,0.2448,0.2448,0.2448,0,0,0.2478,0.2475,0.2471,0.2468,0.2468,0.2475,0.2461,0.2465,0.2474,0.2453,0.2463,0.2463,0.246,0.2476,0.2483,0.2471,0.2527,0.2497,0.2501,0.2507,0.2541,0.255,0.2559,0.245,0.2449,0.2449,0,0,0.2474,0.2471,0.247,0.2479,0.2488,0.2488,0.2494,0.249,0.2492,0.2504,0.2495,0.251,0.2511,0.2517,0.252,0.2556,0.2553,0.2556,0.2588,0.2622,0.2631,0.2638,0.266,0.267,0.2558,0.2558,0.2558,0,0.2472,0.2471,0.2472,0.2482,0.2493,0.2497,0.2509,0.2513,0.2513,0.2527,0.2512,0.254,0.2533,0.2567,0.2574,0.2569,0.2582,0.2564,0.2629,0.2637,0.2644,0.2665,0.2675,0.256,0.256,0.256,0.2559,0,0.2469,0.2479,0.2483,0.2499,0.2511,0.2522,0.2535,0.255,0.2557,0.2566,0.26,0.2596,0.2615,0.2616,0.2603,0.2653,0.2645,0.2633,0.2614,0.2657,0.2676,0.2685,0.2564,0.2563,0.2562,0.2561,0,0,0.2431,0.2473,0.2475,0.2492,0.2525,0.2528,0.2562,0.2591,0.2621,0.2629,0.2667,0.2679,0.2687,0.2692,0.2687,0.2709,0.2763,0.2692,0.2693,0.2715,0.2836,0.2805,0.2812,0.2764,0.2766,0.2768,0.2829,0,0.2431,0.2454,0.248,0.2508,0.2522,0.2556,0.2587,0.2619,0.2649,0.2687,0.2706,0.2737,0.2714,0.2729,0.2752,0.2764,0.279,0.2747,0.2791,0.2792,0.2761,0.2822,0.2568,0.26,0.2838,0.284,0.2841,0,0.2417,0.2438,0.2465,0.252,0.253,0.2552,0.2613,0.2643,0.2709,0.2741,0.2789,0.2802,0.2847,0.2814,0.2871,0.2846,0.2847,0.2849,0.2851,0.2815,0.2779,0.2596,0.2608,0.2856,0.2855,0.2854,0.2853,0,0.2379,0.2427,0.245,0.2466,0.2526,0.2552,0.2587,0.2656,0.2699,0.278,0.2823,0.2878,0.291,0.2931,0.2936,0.2912,0.2991,0.2957,0.2932,0.2929,0.2717,0.2693,0.2999,0.2999,0.2999,0.2998,0.2998,0,0.2362,0.2379,0.2434,0.2443,0.2479,0.2529,0.2583,0.2637,0.2726,0.2779,0.2844,0.2894,0.2941,0.2984,0.2976,0.2993,0.3029,0.2956,0.2953,0.2725,0.2702,0.2923,0.2913,0.3001,0.3,0.3,0.2999,0,0.2314,0.2352,0.2379,0.244,0.246,0.2482,0.2573,0.2616,0.2711,0.2785,0.2814,0.2927,0.2988,0.3024,0.3069,0.3045,0.3059,0.3049,0.278,0.2745,0.2962,0.2954,0.3036,0.3035,0.3035,0.3035,0.3035,0,0.2292,0.2301,0.2359,0.2374,0.2402,0.2449,0.2485,0.2592,0.2644,0.2789,0.2816,0.2923,0.2977,0.3057,0.3028,0.3036,0.307,0.2802,0.2712,0.2982,0.2971,0.2963,0.2956,0.2441,0.2436,0.2432,0.2428,0,0.2248,0.2271,0.2292,0.2324,0.2357,0.2394,0.2454,0.2495,0.2614,0.2683,0.2775,0.2839,0.2928,0.2832,0.2864,0.2827,0.2784,0.2721,0.3074,0.2485,0.243,0.2416,0.2427,0.2391,0.2395,0.2398,0.24,0.2401,0.2212,0.2213,0.2242,0.2265,0.2296,0.2315,0.2318,0.2383,0.2441,0.2495,0.263,0.2628,0.2657,0.2587,0.2511,0.2448,0.2643,0.2493,0.2502,0.2515,0.245,0.2399,0.2341,0.2344,0.2347,0.235,0.2352,0,0.2148,0.2162,0.2182,0.2192,0.2179,0.2236,0.2273,0.2236,0.2239,0.2314,0.2357,0.217,0.2127,0.2153,0.2008,0.203,0.1971,0.1934,0.1809,0.1849,0.1884,0.178,0.1497,0.1494,0.1491,0.1489,0,0,0.2118,0.21,0.2107,0.2061,0.2072,0.2014,0.2012,0.1971,0.1979,0.1927,0.1899,0.2033,0.2109,0.1766,0.1729,0.1584,0.1702,0.1526,0.2216,0.211,0.214,0.2218,0.2108,0,0,0,0,0]},{"header":{"parameterUnit":"m.s-1","parameterCategory":2,"la1":30.2991,"la2":30.254,"lo1":-89.0895,"lo2":-89.0444,"dy":0.0017,"dx":0.0017,"nx":28,"ny":28,"refTime":"2025-01-09T09:00:00:Z","depth":"2","parameterNumber":3,"parameterNumberName":"V-component_of_CURRENTS"},"data":[0,0,0,0,0,0,0,0,0,0,0,0,0,0,0,0,0,0,0,0,0,0,0,0,0,0,0,0,0,0,0,0,0,0,0,0,0,0,0,0,0,0,0,0,0,0,0,0,0,0,0,0,0,0,0,0,0,0,0.005,0.0049,0,0.0,-0.0,-0.0001,-0.0032,-0.0032,-0.0032,-0.0032,-0.0081,-0.0082,-0.0083,0,0,0,0,0,0,0,0,0,0,0,0,0,0.009,0.009,0.005,0.0049,0.0049,0.0,-0.0,-0.0001,-0.0032,-0.0032,-0.0032,-0.0032,-0.0081,-0.0082,-0.0083,0,0,0,0,0,0,0,0,0,0,0,0,0,0.006,0.009,0.005,0.0027,0.0025,0.0,-0.0,-0.0001,-0.0032,-0.0032,-0.0032,-0.0033,-0.008,-0.0082,-0.0083,-0.0089,0,0,-0.0089,-0.0089,0,0,0,0,0,0,0,0,0.0062,0.0059,0.0031,0.0029,0.0026,-0.001,-0.0004,-0.0031,-0.0032,-0.001,-0.0032,-0.0033,-0.0057,-0.006,-0.0069,-0.0092,-0.0094,-0.0089,-0.009,-0.0091,-0.0091,0,0,0,0,0,0,0,0.0064,0.006,0.003,0.0031,0.0028,0.0011,0.0006,-0.0009,-0.0032,-0.0012,-0.0015,-0.002,-0.0058,-0.0068,-0.0071,-0.0095,-0.0089,-0.009,-0.0091,-0.0092,-0.0115,-0.0115,0,0,0,0,0,0,0.0072,0.0062,0.0032,0.0028,0.0044,0.001,0.0005,0.0002,-0.0032,-0.0037,-0.002,-0.0021,-0.0065,-0.0069,-0.0073,-0.0068,-0.0091,-0.0092,-0.0093,-0.0115,-0.0115,-0.0114,0,0,0,0,0,0,0.0073,0.007,0.0034,0.0044,0.0039,0.001,0.0006,0.0001,-0.0008,-0.0037,-0.0043,-0.0024,-0.0065,-0.007,-0.0083,-0.007,-0.0093,-0.0095,-0.0116,-0.0115,-0.0115,-0.0066,0,0,0,0,0,0,0.0075,0.0071,0.007,0.0045,0.0038,0.0026,0.0006,0.0,-0.0011,-0.0014,-0.0042,-0.0047,-0.0066,-0.008,-0.0084,-0.0073,-0.0096,-0.0116,-0.0116,-0.0115,-0.0068,-0.0064,-0.006,0,0,0,0,0,0.0076,0.0078,0.007,0.0066,0.0039,0.0026,0.0021,-0.0,-0.0011,-0.0011,-0.0031,-0.0046,-0.0078,-0.0081,-0.0086,-0.0075,-0.0117,-0.0116,-0.0115,-0.007,-0.0065,-0.006,0,0,0,0,0,0,0.0096,0.0075,0.0065,0.0061,0.0047,0.0021,0.0017,0.0003,-0.0014,-0.0017,-0.0044,-0.005,-0.0056,-0.0072,-0.0075,-0.0079,-0.0099,-0.0099,-0.0063,-0.0058,-0.0054,-0.0041,-0.0097,0,0,0,0,0,0.0101,0.0096,0.0075,0.0072,0.0066,0.0042,0.0034,0.0021,0.0003,-0.0005,-0.0025,-0.0044,-0.0057,-0.0063,-0.0079,-0.0081,-0.0103,-0.0077,-0.0073,-0.007,-0.0063,-0.0085,-0.0082,-0.0111,-0.0111,-0.0111,0,0,0.0108,0.0095,0.0092,0.0076,0.0062,0.0066,0.0037,0.0027,0.0033,-0.0007,-0.0009,-0.0034,-0.0055,-0.0058,-0.0062,-0.0069,-0.0074,-0.0068,-0.0065,-0.006,-0.0084,-0.0081,-0.0078,-0.0111,-0.0111,-0.0111,0,0,0.0126,0.0109,0.0114,0.0107,0.0091,0.008,0.0081,0.0058,0.0049,0.0041,0.0017,0.0,-0.0021,-0.0032,-0.004,-0.0023,-0.0054,-0.0028,0.0006,-0.0016,-0.0013,-0.0012,-0.0039,-0.004,-0.0023,-0.0023,-0.0022,0,0.0136,0.0141,0.0114,0.0122,0.0124,0.0092,0.0109,0.0095,0.0072,0.0072,0.0048,0.0018,-0.0006,-0.0002,0.0001,-0.0013,-0.0034,-0.001,-0.001,-0.0009,-0.0008,-0.0037,-0.0038,-0.002,-0.002,-0.0021,-0.0021,0,0.0162,0.0167,0.0171,0.0173,0.0172,0.0178,0.0163,0.0155,0.0137,0.0127,0.0117,0.0075,0.0062,0.0049,0.0028,0.003,0.001,-0.0005,-0.0021,-0.0002,-0.0034,-0.0036,-0.0017,-0.0017,-0.0018,-0.0019,0,0,0.0192,0.0191,0.0194,0.0211,0.0202,0.021,0.0213,0.0218,0.0234,0.0193,0.0205,0.0167,0.0141,0.013,0.0098,0.0074,0.0055,0.0041,0.0039,0.0017,0.0002,-0.0015,-0.0021,0.0039,0.0039,0.0039,-0.0024,0,0.0226,0.0256,0.0245,0.0285,0.0305,0.0282,0.0294,0.0291,0.0282,0.0282,0.0232,0.0229,0.0176,0.0168,0.0135,0.0079,0.005,0.0073,-0.0015,-0.0018,-0.0033,-0.0023,-0.0003,-0.0058,-0.0027,-0.0028,-0.0028,0,0.0265,0.0281,0.0322,0.0351,0.0358,0.0372,0.0396,0.0406,0.0394,0.0384,0.0362,0.0323,0.0283,0.023,0.0139,0.0156,0.0085,0.0031,0.0027,-0.0006,-0.004,-0.0072,-0.0065,-0.0033,-0.0033,-0.0032,-0.0032,0,0.0314,0.0343,0.038,0.0388,0.0407,0.042,0.0433,0.0437,0.0468,0.0453,0.0465,0.0404,0.0379,0.0282,0.0162,0.0153,0.0054,0.0027,-0.0057,-0.006,-0.0068,-0.0071,-0.0039,-0.0039,-0.0038,-0.0038,-0.0038,0,0.0363,0.0395,0.0404,0.0425,0.048,0.0472,0.0532,0.0532,0.0551,0.0599,0.0525,0.054,0.0392,0.0314,0.0192,0.0062,0.0075,-0.0049,-0.0074,-0.0052,-0.0052,-0.005,-0.005,-0.0041,-0.004,-0.004,-0.0039,0,0.0412,0.0413,0.0464,0.0489,0.0504,0.0544,0.0604,0.0652,0.0651,0.0706,0.0703,0.0647,0.0543,0.0385,0.0229,0.0114,-0.0018,-0.007,-0.0038,-0.0059,-0.0128,-0.0125,-0.0169,-0.017,-0.0171,-0.0172,-0.0172,0,0.0438,0.0466,0.0516,0.0554,0.0567,0.0626,0.0674,0.0701,0.0762,0.0779,0.0814,0.0728,0.069,0.0448,0.0223,0.0005,-0.0024,-0.0119,-0.0136,-0.0119,-0.014,-0.0136,-0.0132,-0.0134,-0.0134,-0.0135,-0.0135,0,0.0495,0.0508,0.0549,0.0625,0.0681,0.0757,0.0826,0.0889,0.0923,0.0964,0.0999,0.0966,0.0728,0.0517,0.021,0.0062,-0.0086,-0.0131,-0.0116,-0.0101,-0.0091,-0.011,-0.0106,-0.0137,-0.0137,-0.0136,-0.0136,-0.0136,0.0538,0.0579,0.0631,0.0707,0.0778,0.0871,0.0947,0.1022,0.1117,0.1165,0.1132,0.1076,0.0829,0.0439,0.0181,-0.0103,-0.0092,-0.0188,-0.0185,-0.0183,-0.0164,-0.0156,-0.0211,-0.0211,-0.0211,-0.0211,-0.0212,0,0.0593,0.0636,0.0711,0.08,0.0888,0.0913,0.104,0.1112,0.1222,0.1238,0.1252,0.1026,0.078,0.0485,0.0071,-0.0164,-0.0182,-0.0244,-0.021,-0.0206,-0.0203,-0.0184,-0.0237,-0.0238,-0.0239,-0.024,0,0,0.0621,0.07,0.0736,0.0877,0.0943,0.1066,0.1142,0.1235,0.1279,0.1307,0.1264,0.1182,0.0847,0.0549,0.0224,-0.0012,-0.0059,-0.0062,-0.0016,0.0065,0.0071,-0.0146,-0.0109,0,0,0,0,0]}],[{"header":{"parameterUnit":"m.s-1","parameterCategory":2,"la1":30.2991,"la2":30.254,"lo1":-89.0895,"lo2":-89.0444,"dy":0.0017,"dx":0.0017,"nx":28,"ny":28,"refTime":"2025-01-09T09:00:00:Z","depth":"4","parameterNumber":2,"parameterNumberName":"U-component_of_CURRENTS"},"data":[0,0,0,0,0,0,0,0,0,0,0,0,0,0,0,0,0,0,0,0,0,0,0,0,0,0,0,0,0,0,0,0,0,0,0,0,0,0,0,0,0,0,0,0,0,0,0,0,0,0,0,0,0,0,0,0,0,0,0.1505,0.1506,0,0.1567,0.1567,0.1568,0.162,0.162,0.1621,0.1622,0.1698,0.1699,0.1701,0,0,0,0,0,0,0,0,0,0,0,0,0,0.1421,0.1422,0.1505,0.1506,0.1507,0.1567,0.1567,0.1568,0.1619,0.162,0.1621,0.1622,0.1698,0.1699,0.1701,0,0,0,0,0,0,0,0,0,0,0,0,0,0.1465,0.1422,0.1505,0.1542,0.1546,0.1566,0.1567,0.1568,0.1619,0.162,0.1622,0.1623,0.1697,0.1699,0.1701,0.1689,0,0,0.1707,0.1708,0,0,0,0,0,0,0,0,0.1462,0.1468,0.1535,0.1539,0.1544,0.1589,0.1566,0.161,0.1619,0.1589,0.1622,0.1623,0.1664,0.1668,0.1674,0.1692,0.1696,0.1707,0.1708,0.1709,0.171,0,0,0,0,0,0,0,0.1459,0.1465,0.1527,0.1536,0.1541,0.1552,0.1559,0.1574,0.1617,0.1591,0.1596,0.1606,0.1666,0.1671,0.1676,0.1697,0.1707,0.1709,0.171,0.1711,0.1817,0.1819,0,0,0,0,0,0,0.1456,0.1462,0.1525,0.1529,0.1508,0.1552,0.1561,0.1571,0.1617,0.1625,0.1605,0.1609,0.1668,0.1673,0.1679,0.1764,0.1709,0.1711,0.1712,0.1816,0.1818,0.1819,0,0,0,0,0,0,0.1454,0.1461,0.1522,0.1499,0.1508,0.1553,0.1564,0.1572,0.1613,0.1628,0.1636,0.1643,0.1669,0.1676,0.1726,0.1763,0.1712,0.1713,0.1814,0.1816,0.1818,0.1872,0,0,0,0,0,0,0.1451,0.146,0.1482,0.1499,0.1509,0.1557,0.1563,0.1572,0.1617,0.1623,0.1662,0.1669,0.167,0.1723,0.1728,0.1765,0.1715,0.1811,0.1815,0.1818,0.1868,0.1876,0.1883,0,0,0,0,0,0.1448,0.1467,0.1482,0.1491,0.1533,0.1558,0.1564,0.1598,0.1618,0.1639,0.1672,0.1669,0.1747,0.1726,0.1731,0.177,0.181,0.1814,0.1817,0.1865,0.1874,0.1882,0,0,0,0,0,0,0.1442,0.1475,0.1492,0.1521,0.155,0.1568,0.1598,0.1616,0.1657,0.1676,0.1687,0.1695,0.1754,0.1754,0.1731,0.1811,0.1779,0.1784,0.1814,0.1823,0.183,0.1831,0.1716,0,0,0,0,0,0.145,0.1478,0.1504,0.1533,0.155,0.158,0.1602,0.1624,0.1655,0.1676,0.1704,0.1737,0.1767,0.179,0.1813,0.1852,0.1854,0.1883,0.189,0.1896,0.1902,0.1937,0.1948,0.1832,0.1832,0.1832,0,0,0.1459,0.1481,0.1499,0.1536,0.1562,0.159,0.1597,0.164,0.1673,0.1677,0.1742,0.1766,0.1784,0.1833,0.1859,0.1842,0.1931,0.1901,0.1906,0.1909,0.1942,0.1953,0.1963,0.1834,0.1834,0.1833,0,0,0.1473,0.1508,0.1532,0.1558,0.1605,0.1622,0.1642,0.1681,0.1715,0.1768,0.1784,0.1832,0.1877,0.1898,0.1912,0.1973,0.1969,0.1988,0.2027,0.2061,0.2071,0.2079,0.2095,0.2105,0.1991,0.1991,0.1991,0,0.1488,0.1516,0.1544,0.1571,0.1602,0.1639,0.1671,0.1703,0.1758,0.1792,0.1801,0.1889,0.1906,0.1963,0.1987,0.199,0.2004,0.199,0.207,0.2078,0.2086,0.2101,0.2111,0.1994,0.1993,0.1993,0.1993,0,0.1504,0.1545,0.1564,0.1612,0.1645,0.1683,0.1725,0.1774,0.182,0.1852,0.1934,0.1961,0.2015,0.2029,0.2028,0.2097,0.2088,0.2075,0.2045,0.2101,0.2113,0.2122,0.1998,0.1997,0.1996,0.1995,0,0,0.1494,0.1564,0.1575,0.1606,0.1675,0.1697,0.1765,0.1827,0.188,0.1941,0.2007,0.2065,0.2094,0.2111,0.2125,0.2154,0.2218,0.2144,0.2145,0.2155,0.2292,0.214,0.2135,0.2225,0.2227,0.2228,0.2277,0,0.1507,0.1557,0.1595,0.1657,0.1687,0.1749,0.1805,0.187,0.1933,0.2006,0.2056,0.2125,0.2121,0.2161,0.2192,0.2217,0.2246,0.2206,0.224,0.2241,0.2095,0.2141,0.2235,0.2284,0.2286,0.2288,0.2289,0,0.1505,0.1542,0.1601,0.1682,0.1704,0.1753,0.1855,0.191,0.2014,0.2069,0.2148,0.2189,0.2262,0.2242,0.2315,0.2294,0.2303,0.2309,0.231,0.2155,0.2106,0.2217,0.2305,0.2304,0.2302,0.2301,0.23,0,0.1463,0.1546,0.1595,0.1624,0.1718,0.1772,0.1833,0.1937,0.1999,0.212,0.2179,0.2264,0.2321,0.2353,0.2374,0.236,0.2433,0.2409,0.2278,0.2268,0.2366,0.2356,0.2455,0.2455,0.2455,0.2455,0.2455,0,0.1444,0.1488,0.1587,0.1612,0.1685,0.1761,0.1853,0.193,0.2047,0.2113,0.2214,0.2266,0.2355,0.2402,0.2405,0.2366,0.2462,0.229,0.2272,0.2387,0.2379,0.2372,0.2362,0.2457,0.2456,0.2456,0.2456,0,0.1388,0.1455,0.1515,0.1626,0.1667,0.1721,0.1859,0.1916,0.2042,0.2132,0.2177,0.2299,0.2351,0.2407,0.2459,0.2388,0.2375,0.2337,0.2461,0.2449,0.218,0.2172,0.2191,0.2186,0.2182,0.2178,0.2175,0,0.136,0.1388,0.151,0.155,0.1609,0.1703,0.1765,0.1903,0.1958,0.2121,0.2144,0.2254,0.2311,0.2262,0.2334,0.2329,0.23,0.2278,0.2219,0.2173,0.2155,0.2153,0.2151,0.2169,0.2167,0.2166,0.2165,0,0.1305,0.1365,0.1413,0.1495,0.1568,0.1633,0.173,0.1758,0.1901,0.2032,0.2058,0.2083,0.2134,0.216,0.2177,0.2168,0.2282,0.2234,0.2242,0.2186,0.2146,0.2132,0.2135,0.2151,0.2153,0.2154,0.2155,0,0.127,0.1287,0.1359,0.1419,0.1501,0.153,0.1596,0.1648,0.1717,0.1885,0.1887,0.1996,0.2107,0.2078,0.2091,0.2073,0.2036,0.196,0.1982,0.1999,0.1912,0.1831,0.1727,0,0,0,0,0,0.1222,0.1226,0.1275,0.1323,0.1398,0.1445,0.1552,0.1617,0.1748,0.1717,0.1796,0.1829,0.1848,0.1908,0.185,0.201,0.205,0.1934,0.1975,0.2071,0.2088,0.2002,0,0,0,0,0,0,0.1187,0.1227,0.1236,0.1228,0.1244,0.1308,0.137,0.1462,0.1448,0.1588,0.1607,0.1713,0.1761,0.1857,0.1812,0.183,0.1816,0.2008,0.2003,0.2061,0.2077,0.209,0.2008,0,0,0,0,0]},{"header":{"parameterUnit":"m.s-1","parameterCategory":2,"la1":30.2991,"la2":30.254,"lo1":-89.0895,"lo2":-89.0444,"dy":0.0017,"dx":0.0017,"nx":28,"ny":28,"refTime":"2025-01-09T09:00:00:Z","depth":"4","parameterNumber":3,"parameterNumberName":"V-component_of_CURRENTS"},"data":[0,0,0,0,0,0,0,0,0,0,0,0,0,0,0,0,0,0,0,0,0,0,0,0,0,0,0,0,0,0,0,0,0,0,0,0,0,0,0,0,0,0,0,0,0,0,0,0,0,0,0,0,0,0,0,0,0,0,0.0219,0.0219,0,0.0186,0.0186,0.0185,0.0169,0.0169,0.0169,0.0169,0.0139,0.0138,0.0138,0,0,0,0,0,0,0,0,0,0,0,0,0,0.0251,0.0251,0.0219,0.0219,0.0218,0.0186,0.0186,0.0185,0.0169,0.0169,0.0169,0.0169,0.0139,0.0139,0.0138,0,0,0,0,0,0,0,0,0,0,0,0,0,0.023,0.0251,0.0219,0.0206,0.0205,0.0186,0.0185,0.0185,0.0169,0.0169,0.0169,0.0169,0.014,0.0139,0.0138,0.0132,0,0,0.0134,0.0134,0,0,0,0,0,0,0,0,0.0231,0.0229,0.0209,0.0207,0.0205,0.0181,0.0186,0.0167,0.0169,0.0183,0.0169,0.0169,0.0153,0.0151,0.0146,0.013,0.0129,0.0134,0.0133,0.0133,0.0132,0,0,0,0,0,0,0,0.0233,0.023,0.0207,0.0208,0.0206,0.0196,0.0193,0.0182,0.0169,0.0182,0.018,0.0176,0.0152,0.0147,0.0145,0.0129,0.0134,0.0133,0.0132,0.0132,0.0109,0.011,0,0,0,0,0,0,0.0237,0.0232,0.0208,0.0206,0.0218,0.0195,0.0192,0.0189,0.0169,0.0166,0.0176,0.0175,0.0149,0.0146,0.0144,0.0147,0.0133,0.0132,0.0131,0.0109,0.0109,0.011,0,0,0,0,0,0,0.0238,0.0235,0.0209,0.0217,0.0213,0.0195,0.0192,0.0189,0.0185,0.0165,0.0162,0.0175,0.0148,0.0145,0.0137,0.0145,0.0131,0.013,0.0109,0.0109,0.011,0.0146,0,0,0,0,0,0,0.0239,0.0236,0.0238,0.0218,0.0213,0.0202,0.0192,0.0188,0.0181,0.018,0.0163,0.016,0.0148,0.0139,0.0136,0.0143,0.0129,0.0109,0.0109,0.0109,0.0144,0.0147,0.0149,0,0,0,0,0,0.024,0.0241,0.0238,0.0235,0.0215,0.0202,0.0199,0.0186,0.0182,0.0182,0.017,0.0161,0.0138,0.0138,0.0135,0.0142,0.0109,0.0109,0.0109,0.0143,0.0146,0.0149,0,0,0,0,0,0,0.0256,0.0238,0.0235,0.0231,0.022,0.0199,0.0197,0.0189,0.0179,0.0179,0.0162,0.0158,0.0153,0.0141,0.0142,0.0135,0.0122,0.0121,0.0149,0.0152,0.0154,0.0163,0.0128,0,0,0,0,0,0.026,0.0257,0.024,0.0238,0.0234,0.0217,0.0211,0.0203,0.019,0.0185,0.0173,0.016,0.0151,0.0147,0.0134,0.0132,0.0111,0.0133,0.0136,0.0138,0.0142,0.0117,0.0118,0.011,0.011,0.011,0,0,0.0266,0.0256,0.0254,0.0241,0.0232,0.0234,0.0214,0.0206,0.021,0.0184,0.0184,0.0167,0.0151,0.0148,0.0145,0.014,0.0127,0.0138,0.014,0.0143,0.0117,0.0118,0.0119,0.011,0.011,0.011,0,0,0.0276,0.0268,0.027,0.0264,0.0252,0.0244,0.0244,0.0227,0.0222,0.0216,0.02,0.0187,0.0173,0.0163,0.0157,0.0164,0.014,0.0161,0.0184,0.016,0.016,0.016,0.0128,0.0125,0.0165,0.0165,0.0165,0,0.0284,0.0287,0.0269,0.0272,0.0274,0.0253,0.0263,0.0254,0.0236,0.0236,0.0222,0.0198,0.0181,0.018,0.0182,0.0171,0.015,0.0176,0.0163,0.0163,0.0163,0.0129,0.0126,0.0166,0.0166,0.0166,0.0166,0,0.0298,0.0304,0.0305,0.0306,0.0305,0.0308,0.0297,0.0292,0.0282,0.0274,0.0265,0.0235,0.0223,0.0213,0.02,0.0194,0.0177,0.0168,0.0158,0.0166,0.013,0.0125,0.0169,0.0168,0.0168,0.0167,0,0,0.0308,0.0314,0.0317,0.0331,0.0326,0.0329,0.0333,0.0334,0.0345,0.0317,0.0321,0.0294,0.0276,0.0267,0.0243,0.022,0.0193,0.0197,0.0195,0.0168,0.0133,0.0119,0.0112,0.0183,0.0183,0.0183,0.0107,0,0.0328,0.0348,0.0345,0.0374,0.0387,0.0376,0.0384,0.0382,0.0377,0.0373,0.0336,0.0333,0.0298,0.0293,0.0263,0.0214,0.0184,0.0214,0.0126,0.0123,0.0113,0.0108,0.0181,0.0103,0.0102,0.0101,0.0101,0,0.0348,0.036,0.039,0.0416,0.0421,0.0435,0.0454,0.046,0.0449,0.0443,0.0425,0.0395,0.0359,0.0325,0.0241,0.0262,0.0202,0.0156,0.0152,0.0124,0.0101,0.0094,0.0092,0.0093,0.0093,0.0094,0.0095,0,0.0371,0.0396,0.0425,0.0432,0.0452,0.0466,0.048,0.0483,0.0504,0.0491,0.0497,0.0445,0.0422,0.0341,0.0243,0.0243,0.014,0.0128,0.0054,0.0052,0.0072,0.0072,0.0063,0.0063,0.0063,0.0064,0.0064,0,0.0393,0.042,0.0441,0.0456,0.0499,0.0501,0.0547,0.0548,0.0562,0.0591,0.054,0.0537,0.0425,0.0352,0.0256,0.0141,0.0148,0.0055,0.0033,0.0087,0.009,0.0068,0.0069,0.0061,0.0061,0.0062,0.0062,0,0.0414,0.0424,0.0465,0.0495,0.0512,0.0545,0.0601,0.0634,0.0636,0.0667,0.0665,0.0608,0.051,0.0387,0.0251,0.0166,0.0052,0.0008,0.007,0.0052,-0.0026,-0.0021,-0.0081,-0.0082,-0.0083,-0.0084,-0.0084,0,0.0424,0.0446,0.0499,0.0532,0.055,0.0602,0.0642,0.067,0.0707,0.071,0.0722,0.0643,0.0584,0.0381,0.0247,0.0054,0.0026,-0.0039,-0.0031,-0.0024,-0.004,-0.0034,-0.0029,-0.0086,-0.0086,-0.0086,-0.0087,0,0.045,0.047,0.0504,0.0571,0.0623,0.0683,0.0738,0.0769,0.0794,0.0799,0.0767,0.066,0.0546,0.0384,0.0231,0.0094,0.0001,-0.0049,-0.0048,-0.0041,-0.003,-0.0044,-0.0038,-0.009,-0.0089,-0.0089,-0.0089,0,0.0473,0.0502,0.055,0.0609,0.0678,0.0737,0.0766,0.0798,0.0829,0.0821,0.0808,0.0682,0.0611,0.0404,0.0266,0.0126,0.0089,0.0041,0.0036,0.0038,0.0093,0.0126,0.0095,0,0,0,0,0,0.0494,0.0528,0.0586,0.065,0.0718,0.0759,0.0819,0.084,0.086,0.0843,0.0827,0.0717,0.0511,0.0426,0.0284,0.0242,0.0061,0.0069,0.0003,-0.0108,-0.0104,-0.0061,0,0,0,0,0,0,0.0507,0.0562,0.0587,0.0673,0.0722,0.0801,0.0841,0.0855,0.0841,0.0835,0.073,0.0677,0.048,0.0594,0.0281,0.0239,0.0175,-0.0025,-0.0028,-0.011,-0.0106,-0.0103,-0.0058,0,0,0,0,0]}]]